NOAA 16 DEB, 41127

Orbit data source: Space-Track

NOAA 16 DEB, 41127 is space debris in SSO originally from a launch on Thu, 21 Sep 2000 UTC launched from the Air Force Western Test Range (AFWTR). Debris objects in space refer to the collection of defunct objects orbiting the Earth. Examples of debris include non-operational satellites, rocket bodies, and fragments generated from explosions, collisions, or faulty payload assembly.

Loading next visibility...
Identifier
41127, 2000-055BJ
Orbit
SSO
Country
Flag of USUS
Related business
Manufacturer
Unknown
Mission
Spacecraft
Bus & Motor
Unknown
Mass
Unknown
Launch date (UTC)
2000-09-21 (25 years ago)
Launch vehicle
Unknown
Launch site
Air Force Western Test Range (AFWTR)
Object type
Payload
Rocket body
Debris
Shape & HBR
Unknown shape, 0.1 m
Radar Cross Section
Small (<0.1 m²)

Expand to show TLE details & history
Last TLE update: 13 hours ago

TLE from 13 hours ago
0 NOAA 16 DEB
1 41127U 00055BJ  25292.17115958  .00374144  00000-0  16429-1 0  9998
2 41127  98.8338 187.1156 0024711 121.9781 238.3857 15.19961857520172
Epoch: 2025-10-19T04:06Z
TLE epoch observation values (Epoch: 2025-10-19T04:06:28.187Z)
Latitude
0.00003°
Longitude
97.60649°
Altitude
517.951 km
Speed
7.6 km/s
True Right ascension
12h 28m 27s
True Declination
0° 00' 00"
Sunlit
Object was in daylight at epoch
Visualization orbit readout
Latitude
Unknown
Longitude
Unknown
Altitude
Unknown
Speed
Unknown
Apparent Right ascension
Unknown
Apparent Declination
Unknown
Sunlit
N/A
Visualization observer readout
Local Sidereal Time
11:56:53
Azimuth
Unknown
Elevation
Unknown
Doppler factor
Unknown
Orbital elements
Apogee altitude
519.992 km
Perigee altitude
485.985 km
Semi-major axis
6,881.125 km
Eccentricity
0.00247
Inclination
98.8338°
RAAN
187.1156°
Arg. of periapsis
121.9781°
True anomaly
238.14495°
Mean anomaly
238.3857°
Eccentric anomaly
238.26528°
Mean motion
3.80237 °/min
Orbital period
94.68 mins
BSTAR
0.016429
Loading maneuver chart data...
Computing Atmospheric mass density...

Documentation

Showing up to 5 results
|